COSMOS 2464 (736)

Last updated on Nov. 12, 2019, 4:19 a.m. UTC

1 37139U 10041C   19315.27393509 -.00000013  00000-0  00000+0 0  9990
2 37139  64.2614 273.4907 0024874   6.0009 107.4658  2.13100677 71534
UTC
Height (km)
Latitude
Longitude
Inclination
Orbital Period
UTC large
Height (km)
Speed (km/s)
/
Latitude / Longitude
Inclination (degrees)
Orbital Period (minutes)
Azimuth
Elevation
Range (km)
Doppler Factor
iOS Compass Heading
iOS Angle

Next 30 passes for location: Hong Kong

Rise time Rise Azimuth (degrees) Set time Set Azimuth (degrees) Duration Max altitude (degrees)

No matching passes for this satellites